Regional Weather Roundup
Issued by NWS

Home | Current Version | Previous Version | Text Only | Print | Product List | Glossary Off
Versions: 1 2 3 4 5 6 7 8 9 10 11 12 13 14 15 16 17 18 19 20 21 22 23 24 25 26 27 28 29 30 31 32 33 34 35 36 37 38 39 40 41 42 43 44 45 46 47 48 49 50

000
ASUS45 KBOU 041207
RWRCO

WEATHER ROUNDUP FOR COLORADO
NATIONAL WEATHER SERVICE DENVER/BOULDER CO
500 AM MST WED MAR 04 2015

NOTE: "FAIR" INDICATES FEW OR NO CLOUDS BELOW 12000 FEET WITH NO
SIGNIFICANT WEATHER AND/OR OBSTRUCTIONS TO VISIBILITY.

COZ001>005-013-030-031-041300-
...NORTHWEST COLORADO...

CITY           SKY/WX    TMP DP  RH WIND       PRES   REMARKS
CRAIG          PTCLDY     4   0  83 E3        30.00R
HAYDEN         PTCLDY     9   3  78 CALM      29.96R
MEEKER         PTCLDY     8   2  76 NE5       29.97R WCI   0
MOUNT WERNER   NOT AVBL
STEAMBOAT SPGS MOCLDY    11   4  75 CALM      29.95R
WALDEN         CLOUDY     1  -2  85 N9        29.87R WCI -14
$$

COZ006>008-011-041300-
...WEST CENTRAL VALLEYS...

CITY           SKY/WX    TMP DP  RH WIND       PRES   REMARKS
GRAND JUNCTION CLOUDY    24  19  81 NE8       29.98R WCI  15
MONTROSE       CLOUDY    27  23  85 NW14      29.95R WCI  16
EAGLE          CLOUDY    19  16  86 E7        29.98R WCI  10
RIFLE          CLOUDY    25  10  53 NW3       29.99R
DELTA          PTCLDY    30  25  81 SW12      29.94R WCI  20
NUCLA          CLOUDY    28  28 100 W5        29.96R WCI  23
$$

COZ017>023-064>068-041300-
...SOUTHWEST COLORADO...

CITY           SKY/WX    TMP DP  RH WIND       PRES   REMARKS
DURANGO        PTCLDY    19  15  84 N3        29.87S
CORTEZ         CLOUDY    28  25  88 CALM      29.91S
PAGOSA SPRINGS CLOUDY    23  22  98 CALM      29.86F
TELLURIDE      LGT SNOW  17  16  94 CALM      29.86R
WOLF CREEK PAS CLOUDY     9   5  85 MISG      29.81R
$$

COZ009-010-012-014-032>034-037-058>063-041300-
...CENTRAL COLORADO...

CITY           SKY/WX    TMP DP  RH WIND       PRES   REMARKS
ASPEN          LGT SNOW  16  10  77 NW12      29.87R WCI   3
BUENA VISTA    CLOUDY    22  13  69 N5        29.79S WCI  15
COPPER MTN     NOT AVBL
BERTHOUD PASS  CLOUDY    -6 -13  71 NW21G33   29.67R WCI -30
COTTONWOOD PAS CLOUDY    19  14  79 CALM      29.76R
GUNNISON       PTCLDY    19  14  79 NW3       29.86R
KREMMLING      CLOUDY    18   1  49 N5        29.93R WCI  11
LEADVILLE      LGT SNOW   7   3  84 N9        29.75R FOG     WCI  -7
SALIDA         CLOUDY    19  18  93 SE12G17   29.90R WCI   7
SUNLIGHT         N/A    N/A N/A N/A W3          N/A
WILKERSON PASS LGT SNOW   9   3  78 CALM      29.75R
$$

COZ069>075-041300-
...SAN LUIS VALLEY/SANGRE DE CRISTO MOUNTAINS...

CITY           SKY/WX    TMP DP  RH WIND       PRES   REMARKS
ALAMOSA        CLEAR     19  14  81 NE5       29.83R WCI  12
LA VETA PASS   CLEAR     16  12  86 MISG      29.78S
SAGUACHE       PTCLDY    21  12  68 NW7       29.83S WCI  13
$$

COZ035-036-038>040-041300-
...NORTHERN COLORADO FRONT RANGE...

CITY           SKY/WX    TMP DP  RH WIND       PRES   REMARKS
DENVER INTL AP LGT SNOW  11   8  88 N5        30.06R FOG     WCI   3
DMNS CITY PARK   N/A     11   9  89 NE3       30.07R
AURORA         LGT SNOW  10   7  91 NE2       30.05R FOG
FRONT RANGE AP LGT SNOW  14  10  85 NW5       30.06R WCI   6
ERIE MUNI ARPT LGT SNOW  13  10  90 CALM      30.09R
BOULDER MUN AP LGT SNOW  12  10  92 CALM      30.07R
CENTENNIAL     LGT SNOW  10   6  84 N6        30.03R FOG     WCI   0
BROOMFIELD     LGT SNOW  12  10  92 CALM      30.06R
FORT COLLINS   PTCLDY    12   9  85 NE6       30.10R WCI   3
LONGMONT       LGT SNOW  16  12  84 CALM      30.11R VSB 1
$$

COZ041-046-047-076>085-087-088-041300-
...PIKES PEAK/PALMER DIVIDE AND SOUTHERN FOOTHILLS...

CITY           SKY/WX    TMP DP  RH WIND       PRES   REMARKS
COLO. SPRINGS  LGT SNOW  15  11  83 N17       29.96R VSB 1   WCI  -1
A. F. ACADEMY  LGT SNOW  10   5  79 N14       29.96R WCI  -5
ELLICOTT       NOT AVBL
FALCON         LGT SNOW   9   6  88 N13       29.94R WCI  -7
FORT CARSON    SNOW      19  17  94 N9        29.96R VSB 1/2 WCI   8
LIMON          LGT SNOW  10   7  87 NE14      30.03R FOG     WCI  -6
MONUMENT HILL  LGT SNOW   5   1  85 N9        29.94R WCI  -9
TRINIDAD       CLOUDY    26  22  84 NE12      29.91R FOG     WCI  16
$$

COZ042>045-048>051-090-091-041300-
...NORTHEAST COLORADO...

CITY           SKY/WX    TMP DP  RH WIND       PRES   REMARKS
GREELEY ARPT   CLOUDY    12   3  67 NE5       30.10R WCI   4
AKRON          LGT SNOW  12  10  92 N8        30.09R FOG     WCI   0
BURLINGTON     LGT SNOW  15  11  83 N9        30.10R FOG     WCI   3
WRAY           CLOUDY    15  13  91 CALM      30.15R
STERLING       CLOUDY    14  12  92 CALM      30.13R
HOLYOKE        NOT AVBL
FORT MORGAN    NOT AVBL
$$

COZ086-089-092>099-041300-
...SOUTHEAST COLORADO...

CITY           SKY/WX    TMP DP  RH WIND       PRES   REMARKS
PUEBLO         LGT SNOW  23  22  96 E14       30.00R FOG     WCI  11
LA JUNTA       CLOUDY    22  19  89 E21       30.04R FOG     WCI   6
LAMAR          CLOUDY    20  12  71 E16       30.08R WCI   6
SPRINGFIELD      N/A     19  18  95 E15       30.01R WCI   5
$$



USA.gov is the U.S. government's official web portal to all federal, state and local government web resources and services.